[[{"header":{"parameterUnit":"m.s-1","parameterCategory":1,"la1":30.2991,"la2":30.254,"lo1":-89.0895,"lo2":-89.0444,"dy":0.0017,"dx":0.0017,"nx":28,"ny":28,"refTime":"2025-03-02T09:00:00:Z","depth":0,"parameterNumber":2,"parameterNumberName":"U-component_of_WINDS"},"data":[0,0,0,0,0,0,0,0,0,0,0,0,0,0,0,0,0,0,0,0,0,0,0,0,0,0,0,0,0,0,0,0,0,0,0,0,0,0,0,0,0,0,0,0,0,0,0,0,0,0,0,0,0,0,0,0,0,0,-6.201,-6.2012,0,-6.2168,-6.217,-6.2172,-6.2163,-6.2161,-6.2159,-6.2156,-6.2316,-6.2322,-6.2328,0,0,0,0,0,0,0,0,0,0,0,0,0,-6.1699,-6.1705,-6.201,-6.2012,-6.2014,-6.2168,-6.217,-6.2172,-6.2164,-6.2161,-6.2158,-6.2155,-6.2314,-6.2321,-6.2329,0,0,0,0,0,0,0,0,0,0,0,0,0,-6.1843,-6.1707,-6.201,-6.2028,-6.2032,-6.2167,-6.217,-6.2173,-6.2164,-6.2161,-6.2157,-6.2154,-6.2311,-6.232,-6.233,-6.2457,0,0,-6.2359,-6.2363,0,0,0,0,0,0,0,0,-6.1835,-6.1855,-6.2024,-6.2027,-6.2031,-6.2142,-6.2119,-6.2268,-6.2165,-6.2114,-6.2156,-6.2152,-6.2261,-6.2274,-6.2311,-6.2464,-6.2471,-6.236,-6.2366,-6.237,-6.2372,0,0,0,0,0,0,0,-6.1825,-6.1848,-6.2072,-6.2026,-6.2031,-6.2028,-6.2045,-6.2147,-6.2204,-6.2118,-6.2118,-6.2137,-6.2262,-6.2302,-6.2315,-6.2473,-6.2359,-6.2368,-6.2374,-6.2378,-6.2738,-6.2741,0,0,0,0,0,0,-6.1811,-6.184,-6.2067,-6.2077,-6.1923,-6.2037,-6.2055,-6.211,-6.2203,-6.2214,-6.2139,-6.2136,-6.2287,-6.2304,-6.232,-6.2474,-6.237,-6.2378,-6.2384,-6.2734,-6.2738,-6.2743,0,0,0,0,0,0,-6.1805,-6.1832,-6.2061,-6.1959,-6.1988,-6.2046,-6.2107,-6.2115,-6.2155,-6.2219,-6.2229,-6.217,-6.2285,-6.2307,-6.2423,-6.2479,-6.2383,-6.2391,-6.2729,-6.2735,-6.2741,-6.2782,0,0,0,0,0,0,-6.1796,-6.1829,-6.1879,-6.196,-6.1993,-6.2161,-6.2111,-6.2121,-6.2172,-6.2168,-6.225,-6.2261,-6.2284,-6.2409,-6.2432,-6.2491,-6.2399,-6.2724,-6.2732,-6.2739,-6.2776,-6.2789,-6.28,0,0,0,0,0,-6.1785,-6.1884,-6.1881,-6.1909,-6.2056,-6.2165,-6.2184,-6.2209,-6.2176,-6.2226,-6.2267,-6.2258,-6.247,-6.2421,-6.2447,-6.2509,-6.2721,-6.273,-6.2738,-6.2771,-6.2786,-6.2799,0,0,0,0,0,0,-6.1807,-6.1895,-6.1893,-6.2021,-6.2086,-6.2163,-6.2226,-6.2225,-6.23,-6.2293,-6.2322,-6.234,-6.2456,-6.2495,-6.2438,-6.2637,-6.2591,-6.2605,-6.2607,-6.2622,-6.2634,-6.262,-6.2407,0,0,0,0,0,-6.1827,-6.1908,-6.1981,-6.2087,-6.212,-6.2168,-6.2216,-6.223,-6.2298,-6.2325,-6.2375,-6.2441,-6.2522,-6.2574,-6.2653,-6.2783,-6.28,-6.2839,-6.285,-6.286,-6.2871,-6.2941,-6.2959,-6.2771,-6.2771,-6.2771,0,0,-6.1868,-6.1926,-6.1976,-6.2093,-6.2144,-6.2228,-6.219,-6.228,-6.2342,-6.2338,-6.245,-6.249,-6.2565,-6.2688,-6.2745,-6.2724,-6.2927,-6.2871,-6.2878,-6.2884,-6.2952,-6.297,-6.2985,-6.2777,-6.2776,-6.2775,0,0,-6.1985,-6.2039,-6.2132,-6.2185,-6.2265,-6.2296,-6.2319,-6.2397,-6.2423,-6.2537,-6.2536,-6.261,-6.2749,-6.2803,-6.2848,-6.2987,-6.2981,-6.3012,-6.3073,-6.3141,-6.3156,-6.3169,-6.3217,-6.3234,-6.3024,-6.3024,-6.3024,0,-6.2027,-6.2153,-6.218,-6.2271,-6.2322,-6.2324,-6.2419,-6.2469,-6.2569,-6.2604,-6.2579,-6.2755,-6.2806,-6.2941,-6.2975,-6.3012,-6.3038,-6.3001,-6.3152,-6.3165,-6.3178,-6.3224,-6.3242,-6.3027,-6.3027,-6.3026,-6.3026,0,-6.2198,-6.2286,-6.2352,-6.245,-6.2508,-6.26,-6.2642,-6.2698,-6.2708,-6.2742,-6.2857,-6.2918,-6.3009,-6.3043,-6.3053,-6.318,-6.3164,-6.3146,-6.3099,-6.3198,-6.3242,-6.326,-6.3031,-6.303,-6.3029,-6.3029,0,0,-6.2332,-6.2445,-6.2468,-6.2512,-6.26,-6.2668,-6.2761,-6.285,-6.2897,-6.2967,-6.3044,-6.3163,-6.3146,-6.3198,-6.3215,-6.3275,-6.338,-6.3249,-6.3252,-6.3269,-6.3521,-6.3532,-6.3552,-6.3378,-6.3381,-6.3384,-6.3514,0,-6.2457,-6.262,-6.2648,-6.2791,-6.2872,-6.2876,-6.2956,-6.3019,-6.3054,-6.3126,-6.3165,-6.3248,-6.3221,-6.3252,-6.3312,-6.3354,-6.343,-6.3346,-6.3448,-6.3451,-6.3426,-6.3575,-6.3587,-6.3707,-6.3531,-6.3534,-6.3536,0,-6.2624,-6.2698,-6.2849,-6.2926,-6.2961,-6.3033,-6.3117,-6.3187,-6.3258,-6.3279,-6.3337,-6.3348,-6.3443,-6.3395,-6.3526,-6.3468,-6.3512,-6.3539,-6.3544,-6.3552,-6.3497,-6.3585,-6.3746,-6.3762,-6.3564,-6.3561,-6.3559,0,-6.2703,-6.2842,-6.2949,-6.2987,-6.3081,-6.3131,-6.3172,-6.324,-6.3292,-6.3365,-6.3399,-6.3483,-6.3528,-6.3593,-6.3625,-6.3588,-6.3753,-6.3709,-6.3772,-6.3771,-6.3804,-6.3801,-6.3971,-6.3837,-6.3837,-6.3836,-6.3836,0,-6.2838,-6.293,-6.2986,-6.3052,-6.3155,-6.3187,-6.3288,-6.3328,-6.3388,-6.3462,-6.3472,-6.354,-6.358,-6.3654,-6.368,-6.3784,-6.3805,-6.3823,-6.3829,-6.3821,-6.3818,-6.3848,-6.3839,-6.3841,-6.384,-6.3839,-6.3838,0,-6.2943,-6.2985,-6.3102,-6.3182,-6.3204,-6.3276,-6.3343,-6.3407,-6.3442,-6.3535,-6.3559,-6.3614,-6.3702,-6.3741,-6.385,-6.3868,-6.3985,-6.3986,-6.3961,-6.3962,-6.4022,-6.4015,-6.4216,-6.4243,-6.4093,-6.4094,-6.4095,0,-6.3025,-6.3096,-6.3183,-6.3233,-6.3275,-6.3356,-6.3409,-6.3444,-6.3499,-6.3585,-6.3639,-6.3728,-6.38,-6.394,-6.399,-6.4073,-6.4074,-6.4139,-6.4086,-6.4076,-6.4072,-6.4067,-6.4073,-6.4147,-6.4148,-6.415,-6.4151,0,-6.3166,-6.3183,-6.326,-6.3344,-6.3407,-6.3475,-6.3541,-6.3581,-6.3626,-6.3688,-6.3778,-6.3834,-6.3946,-6.4033,-6.4119,-6.4161,-6.4163,-6.4167,-6.4186,-6.4177,-6.4159,-6.4168,-6.3984,-6.4162,-6.4161,-6.416,-6.4159,-6.4159,-6.3261,-6.3323,-6.3394,-6.3479,-6.3532,-6.3594,-6.3658,-6.3702,-6.3778,-6.3871,-6.3887,-6.3983,-6.4053,-6.4169,-6.4214,-6.4289,-6.4274,-6.4301,-6.4308,-6.4313,-6.4315,-6.415,-6.4306,-6.4305,-6.4305,-6.4305,-6.4305,0,-6.34,-6.3446,-6.3524,-6.3616,-6.3683,-6.3681,-6.3754,-6.3809,-6.3894,-6.3959,-6.403,-6.4134,-6.4219,-6.4275,-6.4361,-6.441,-6.4413,-6.4432,-6.4427,-6.4436,-6.4326,-6.43,-6.4428,-6.4427,-6.4427,-6.4427,-6.4427,-6.4427,-6.348,-6.3585,-6.3611,-6.3743,-6.3788,-6.3882,-6.3924,-6.3981,-6.4033,-6.4148,-6.4219,-6.4256,-6.4317,-6.4408,-6.4485,-6.45,-6.453,-6.4549,-6.4562,-6.4457,-6.4444,-6.4432,-6.4407,-6.4555,-6.4556,-6.4666,-6.4667,-6.4667]},{"header":{"parameterUnit":"m.s-1","parameterCategory":1,"la1":30.2991,"la2":30.254,"lo1":-89.0895,"lo2":-89.0444,"dy":0.0017,"dx":0.0017,"nx":28,"ny":28,"refTime":"2025-03-02T09:00:00:Z","depth":0,"parameterNumber":3,"parameterNumberName":"V-component_of_WINDS"},"data":[0,0,0,0,0,0,0,0,0,0,0,0,0,0,0,0,0,0,0,0,0,0,0,0,0,0,0,0,0,0,0,0,0,0,0,0,0,0,0,0,0,0,0,0,0,0,0,0,0,0,0,0,0,0,0,0,0,0,3.9273,3.9275,0,3.9412,3.9413,3.9415,3.943,3.9429,3.9427,3.9426,3.9566,3.9571,3.9575,0,0,0,0,0,0,0,0,0,0,0,0,0,3.902,3.9025,3.9273,3.9275,3.9276,3.9412,3.9413,3.9415,3.943,3.9429,3.9427,3.9425,3.9564,3.957,3.9576,0,0,0,0,0,0,0,0,0,0,0,0,0,3.9142,3.9026,3.9273,3.93,3.9304,3.9411,3.9414,3.9416,3.9431,3.9429,3.9426,3.9425,3.9562,3.9569,3.9577,3.9665,0,0,3.96,3.9603,0,0,0,0,0,0,0,0,3.9135,3.9151,3.9294,3.9299,3.9303,3.9402,3.9376,3.9499,3.9431,3.9383,3.9426,3.9424,3.9513,3.9524,3.9555,3.9672,3.9678,3.96,3.9605,3.9608,3.961,0,0,0,0,0,0,0,3.9126,3.9145,3.9328,3.9296,3.9302,3.9306,3.932,3.9399,3.9457,3.9387,3.9388,3.9404,3.9514,3.9547,3.9558,3.968,3.96,3.9607,3.9612,3.9615,3.9879,3.9881,0,0,0,0,0,0,3.9113,3.9138,3.9323,3.9332,3.9212,3.9312,3.9328,3.9372,3.9457,3.9468,3.9406,3.9405,3.9535,3.9549,3.9563,3.9674,3.9608,3.9615,3.962,3.9876,3.9879,3.9882,0,0,0,0,0,0,3.9107,3.9129,3.9318,3.9236,3.926,3.9318,3.9367,3.9376,3.9409,3.9471,3.9482,3.9429,3.9534,3.9552,3.964,3.9679,3.9619,3.9625,3.9873,3.9877,3.9881,3.9894,0,0,0,0,0,0,3.91,3.9127,3.9161,3.9236,3.9264,3.9393,3.9369,3.938,3.9422,3.9421,3.9496,3.9506,3.9534,3.9629,3.9648,3.9688,3.9631,3.987,3.9875,3.9879,3.9891,3.9898,3.9905,0,0,0,0,0,3.9091,3.9159,3.9163,3.9185,3.9308,3.9395,3.9411,3.9443,3.9425,3.946,3.9501,3.9504,3.9671,3.9638,3.9659,3.9702,3.9868,3.9874,3.9879,3.9888,3.9897,3.9904,0,0,0,0,0,0,3.9086,3.9169,3.9175,3.9269,3.9325,3.9398,3.9443,3.9451,3.9513,3.951,3.9546,3.9563,3.9649,3.9684,3.9646,3.9793,3.9768,3.9778,3.9767,3.9776,3.9783,3.9773,3.9638,0,0,0,0,0,3.9096,3.916,3.9229,3.9305,3.9334,3.9383,3.9422,3.9442,3.9502,3.9525,3.9572,3.9629,3.9695,3.9737,3.9801,3.9896,3.9913,3.9936,3.9943,3.9948,3.9957,4.0011,4.0023,3.99,3.99,3.99,0,0,3.9117,3.917,3.9208,3.9306,3.9352,3.9418,3.9403,3.9473,3.9522,3.9535,3.9622,3.9659,3.9725,3.9817,3.986,3.9849,3.9994,3.9956,3.9959,3.9965,4.0018,4.003,4.004,3.9904,3.9904,3.9903,0,0,3.9189,3.9235,3.9305,3.9352,3.9422,3.9455,3.9472,3.9544,3.9569,3.9657,3.9669,3.9728,3.984,3.9888,3.9926,4.0019,4.0024,4.0038,4.0074,4.0127,4.0136,4.0145,4.0179,4.0191,4.0046,4.0046,4.0046,0,3.9206,3.9306,3.9339,3.941,3.9453,3.9469,3.9541,3.9584,3.9671,3.9701,3.9687,3.983,3.9875,3.998,4.0003,4.0033,4.0054,4.003,4.0132,4.0141,4.015,4.0183,4.0196,4.0048,4.0048,4.0047,4.0047,0,3.9324,3.9393,3.9441,3.9526,3.9575,3.9645,3.9689,3.9734,3.975,3.9785,3.9875,3.9931,4.0007,4.0033,4.0049,4.0141,4.0132,4.0125,4.01,4.0163,4.0194,4.0207,4.005,4.0049,4.0049,4.0048,0,0,3.9396,3.95,3.9517,3.9557,3.9637,3.9691,3.9762,3.9838,3.9877,3.9936,3.9998,4.0094,4.0089,4.0133,4.0154,4.02,4.0272,4.0188,4.019,4.0202,4.0378,4.0383,4.0397,4.0276,4.0278,4.028,4.0373,0,3.9478,3.9606,3.9639,3.9749,3.9814,3.9832,3.9894,3.995,3.9984,4.0045,4.0082,4.015,4.0138,4.0165,4.0211,4.0253,4.0307,4.0247,4.0333,4.0336,4.0317,4.0413,4.0419,4.0503,4.0385,4.0387,4.0389,0,3.959,3.9654,3.9771,3.9844,3.9872,3.9928,4.0001,4.0058,4.0122,4.0144,4.0194,4.0212,4.0288,4.0259,4.0364,4.0322,4.036,4.0386,4.039,4.0399,4.0366,4.0426,4.0531,4.0544,4.0408,4.0407,4.0405,0,3.9633,3.9748,3.9833,3.9866,3.9953,3.9992,4.003,4.0092,4.0136,4.02,4.0229,4.03,4.0339,4.0394,4.0431,4.0406,4.0534,4.0507,4.0554,4.0554,4.058,4.0578,4.0693,4.0603,4.0603,4.0603,4.0603,0,3.9721,3.9792,3.9853,3.9905,3.9986,4.0023,4.0101,4.014,4.0195,4.0255,4.0274,4.033,4.0375,4.0437,4.0466,4.055,4.0567,4.0587,4.0594,4.0586,4.0584,4.0611,4.0607,4.0606,4.0606,4.0605,4.0604,0,3.9782,3.9826,3.992,3.9995,4.0016,4.0072,4.0136,4.0188,4.0223,4.03,4.0319,4.0375,4.045,4.0492,4.0585,4.0605,4.0698,4.0702,4.0677,4.068,4.0725,4.0721,4.0862,4.0883,4.0779,4.0779,4.078,0,3.9836,3.9892,3.9973,4.0015,4.0054,4.0122,4.0167,4.0207,4.0253,4.0332,4.0374,4.045,4.0513,4.0631,4.068,4.0752,4.0758,4.0803,4.0769,4.076,4.076,4.0757,4.0763,4.0809,4.081,4.081,4.0811,0,3.9928,3.9948,4.0013,4.0087,4.0141,4.02,4.0259,4.0293,4.0342,4.0394,4.0471,4.052,4.0616,4.0692,4.0768,4.0807,4.0818,4.0821,4.0836,4.0829,4.0813,4.0823,4.0694,4.0818,4.0817,4.0817,4.0816,4.0816,3.9989,4.0039,4.0105,4.0177,4.0226,4.0281,4.0334,4.0377,4.0442,4.0525,4.0544,4.0625,4.0689,4.0793,4.0834,4.0899,4.0891,4.0912,4.0917,4.0922,4.0925,4.0802,4.0913,4.0913,4.0912,4.0912,4.0912,0,4.0083,4.0126,4.0193,4.0275,4.0333,4.0339,4.0405,4.0452,4.0524,4.0583,4.0645,4.0735,4.0809,4.0864,4.0939,4.098,4.0987,4.0999,4.0997,4.1006,4.0927,4.0907,4.0992,4.0992,4.0992,4.0992,4.0992,4.0992,4.0138,4.0225,4.0252,4.0363,4.0406,4.0487,4.0524,4.0576,4.0623,4.0722,4.0784,4.082,4.0878,4.0958,4.1027,4.1041,4.1068,4.108,4.1095,4.102,4.1011,4.1003,4.0985,4.1085,4.1085,4.1169,4.1169,4.117]}]]